Vertical_Velocity
-4 -3 -3 -6 -6 -6 -2 -2 -4 -1 -1 -1 -1 -1 -1 -1 -1 -0 -1 4 0 2 2 1 0 0 0 0 2 -0 1 0 -0
-5 -8 -9 -2 -5 -1 -3 -5 -3 -6 -4 -4 -1 -1 0 1 1 1 -1 -0 1 -1 8 1 -1 -3 1 2 -0 -2 0 -0 -1
7 -0 -2 18 -8 -1 -2 -1 -2 -1 -2 -4 -5 -2 -2 -1 0 1 -3 3 2 2 -0 0 3 0 1 -0 -0 0 2 -1 -0
9 6 -6 -2 -0 -4 -3 -2 1 1 0 -0 0 -1 -2 -0 0 -0 0 1 2 4 1 -0 -1 -1 -0 1 0 -1 -1 0 -2
-10 -5 2 -2 -2 -2 -1 -2 0 -2 -0 0 -1 -0 -1 -2 -2 -1 -1 -4 -0 -1 -1 1 -1 -1 -1 -2 -2 -1 -2 -2 -3
-5 -7 -5 -2 -2 -2 1 -0 -1 -0 -0 -1 -3 -2 -2 1 2 2 -0 -1 -1 -1 0 1 -2 -3 -1 -3 -3 -3 -1 0 -1
-10 -15 0 -4 -6 -1 -0 -0 -2 1 -2 -2 -3 1 1 -0 -4 -5 2 2 0 2 1 -0 2 -1 -3 -1 0 1 -2 -1 -2
2 -11 4 -3 -9 -1 -1 -0 0 1 -3 -3 1 -2 -1 -1 -1 -1 -4 -0 -0 0 1 -1 -1 -1 -1 -2 -2 0 -0 -2 -3
5 -1 -6 -6 -5 -4 -2 -2 -1 1 -2 -2 -1 -0 0 -0 -1 -1 -2 -2 -2 -0 -1 -1 -2 -0 1 -2 -3 -2 -0 -2 -1
-3 0 2 -7 -1 -3 -3 -1 -2 1 -2 -1 -1 -2 -1 -0 -2 -1 -0 -1 -2 -0 -0 -1 1 1 -0 3 3 1 -2 -1 -1
8 -1 -0 -3 -6 -3 -5 -2 -2 -1 1 -0 -0 -1 -0 0 -1 -1 -2 -1 -1 0 -1 -1 -1 -3 0 0 1 5 3 3 1
-2 -1 -1 1 -2 -8 1 -4 -4 -1 0 3 1 3 -1 -1 -0 0 -1 0 -4 -3 -3 -1 -1 1 -1 -2 -5 -2 -1 1 1
-3 -2 -0 -1 -0 -5 -7 -3 -3 -1 1 3 3 -1 -1 -1 -2 1 -2 -1 -1 -1 1 -1 -1 -1 1 1 0 1 0 -1 -0
-3 -2 -1 0 2 -3 -6 -1 -5 -4 2 2 -2 -2 0 -2 0 2 -2 -0 3 7 4 -0 -1 -5 -0 4 4 1 2 -2 -3
-2 -0 -2 -1 -1 -0 -1 -3 -3 -7 -3 -2 -4 0 -3 -2 1 4 2 -0 -2 3 12 20 5 4 -2 -4 4 1 1 1 -2
-5 1 -4 -3 -2 -3 -2 -2 -2 -3 -5 -1 -2 -4 1 -3 5 11 9 27 63 2 11 19 13 22 12 2 -7 -3 -0 3 3
-2 -0 -3 -1 -4 -3 -2 -1 -2 -4 -2 -1 -4 -3 1 -3 -0 7 14 4 23 23 -34 -10 -5 89 20 10 5 5 27 1 6
-2 -3 -4 1 -2 -3 1 -5 -1 -3 -2 -3 -2 -0 -2 1 -3 -1 -2 1 5 -5 -6 -6 1 1 1 5 -4 -10 6 2 1
-2 -3 -4 -3 -1 -3 -1 -6 4 -5 -3 -2 -2 -4 -2 2 -3 -3 0 -13 -5 -6 3 -3 6 -1 -0 0 -2 -2 1 8 9
-2 -1 -1 -3 -5 -1 -3 -5 2 -1 -3 -1 -1 2 -1 2 3 2 -2 -2 -3 3 0 4 0 1 1 -6 1 -1 0 17 -3
Height
5896 5895 5895 5893 5893 5893 5894 5893 5890 5890 5890 5888 5886 5885 5883 5883 5883 5883 5883 5882 5882 5884 5884 5884 5883 5883 5884 5885 5884 5885 5886 5885 5886
5895 5895 5894 5894 5893 5894 5893 5892 5891 5890 5889 5887 5885 5884 5883 5882 5881 5881 5880 5881 5880 5880 5880 5880 5879 5880 5881 5880 5880 5882 5883 5882 5884
5897 5896 5897 5893 5893 5894 5893 5892 5889 5888 5887 5885 5884 5883 5881 5880 5878 5878 5878 5878 5878 5878 5877 5877 5877 5877 5877 5878 5878 5878 5879 5880 5881
5894 5894 5892 5895 5893 5892 5892 5890 5889 5887 5886 5884 5881 5879 5878 5877 5876 5875 5875 5876 5875 5875 5875 5874 5875 5875 5875 5875 5875 5875 5875 5876 5878
5887 5888 5890 5891 5890 5891 5890 5889 5888 5886 5885 5882 5879 5876 5874 5874 5873 5872 5872 5873 5873 5872 5873 5873 5873 5874 5873 5873 5872 5873 5873 5872 5872
5884 5885 5886 5887 5887 5888 5888 5888 5887 5886 5884 5881 5878 5874 5873 5871 5871 5871 5870 5870 5870 5870 5871 5871 5872 5871 5871 5870 5870 5870 5869 5869 5868
5878 5878 5881 5883 5884 5886 5886 5886 5885 5884 5882 5879 5875 5872 5871 5869 5869 5869 5869 5869 5867 5867 5867 5867 5868 5868 5868 5868 5869 5869 5867 5866 5865
5875 5873 5877 5879 5880 5883 5884 5883 5883 5881 5880 5878 5874 5872 5870 5868 5867 5867 5866 5865 5865 5865 5865 5864 5864 5864 5864 5865 5866 5866 5865 5865 5863
5870 5873 5874 5875 5877 5879 5880 5880 5880 5879 5878 5876 5874 5872 5870 5868 5867 5866 5864 5864 5863 5862 5862 5861 5861 5861 5862 5862 5863 5863 5861 5861 5860
5862 5867 5870 5869 5873 5874 5875 5876 5877 5876 5875 5874 5873 5871 5870 5868 5866 5864 5863 5862 5861 5860 5859 5858 5858 5858 5858 5858 5859 5858 5857 5855 5855
5858 5862 5864 5865 5867 5869 5870 5872 5873 5873 5872 5871 5870 5869 5868 5866 5865 5863 5861 5860 5859 5858 5857 5855 5854 5854 5854 5855 5854 5854 5855 5854 5853
5851 5856 5858 5860 5862 5863 5866 5867 5868 5868 5867 5867 5866 5864 5863 5862 5861 5859 5858 5857 5856 5854 5853 5853 5852 5850 5850 5849 5849 5849 5849 5850 5851
5845 5848 5852 5855 5857 5858 5859 5861 5861 5862 5862 5861 5860 5858 5856 5856 5856 5854 5854 5853 5852 5849 5847 5846 5845 5844 5844 5843 5843 5843 5843 5843 5843
5839 5843 5846 5848 5851 5852 5853 5854 5854 5854 5854 5854 5853 5851 5849 5849 5849 5848 5847 5845 5842 5840 5839 5838 5838 5838 5836 5836 5835 5834 5835 5834 5834
5833 5836 5839 5841 5843 5845 5846 5846 5847 5846 5845 5844 5844 5844 5843 5842 5840 5839 5837 5835 5832 5828 5825 5824 5824 5828 5829 5828 5828 5826 5825 5825 5825
5826 5829 5831 5833 5835 5836 5837 5838 5838 5838 5838 5836 5835 5835 5835 5835 5831 5828 5824 5819 5809 5807 5810 5814 5814 5811 5815 5817 5818 5818 5816 5816 5816
5819 5821 5823 5825 5826 5827 5829 5829 5828 5829 5830 5829 5826 5825 5826 5826 5825 5821 5816 5813 5804 5804 5804 5797 5804 5798 5801 5805 5808 5807 5809 5807 5806
5810 5812 5814 5816 5817 5818 5819 5819 5820 5819 5819 5819 5818 5818 5817 5816 5816 5812 5809 5805 5800 5797 5797 5800 5798 5795 5790 5791 5797 5795 5794 5797 5797
5801 5803 5805 5806 5807 5808 5809 5809 5811 5810 5809 5808 5808 5808 5808 5806 5803 5801 5799 5795 5791 5786 5786 5784 5783 5785 5786 5786 5784 5781 5778 5780 5787
5793 5794 5795 5796 5797 5798 5799 5799 5800 5800 5799 5799 5798 5797 5798 5796 5792 5790 5788 5785 5782 5778 5773 5771 5771 5774 5776 5778 5776 5776 5774 5775 5780